User: anonymous   Login
Location: San Pelegr�n
(42.1868°N, 0.0079°E)
Time: 21:30:08
(UTC+00:00)
Language:

Cosmos 2366 rocket - Orbit

View from above orbital plane
View from above orbital plane
View from above satellite
View from above satellite

Ground track
Ground track

The orbit data is extracted from the following two-line orbital elements,

1 25893U 99045B   20088.24391549 +.00000035 +00000-0 +20138-4 0  9995
2 25893 082.9299 348.9137 0029499 134.2407 338.1358 13.76534016034304
Epoch (UTC): 28 March 2020 05:51:14
Eccentricity: 0.0029499
inclination: 82.9299°
perigee height: 954 km
apogee height: 998 km
right ascension of ascending node: 348.9137°
argument of perigee: 134.2407°
revolutions per day: 13.76534016
mean anomaly at epoch: 338.1358°
orbit number at epoch: 3430

The dashed part of the orbit path shows where the satellite is in the earth's shadow,  

DLR